Weather History for Lincoln, CA

Change the Weather History Date:

Thursday, September 13, 2012

  Actual Average (KAUN) Record (KAUN)
Temperature  
Mean Temperature 75 °F -  
Max Temperature 95 °F 86 °F 104 °F (1979)
Min Temperature 55 °F 57 °F 46 °F (1970)
Cooling Degree Days 10    
Growing Degree Days 25 (Base 50)    
Moisture  
Dew Point 50 °F    
Average Humidity 46    
Maximum Humidity 72    
Minimum Humidity 20    
Precipitation  
Precipitation 0.00 in - - ()
Sea Level Pressure  
Sea Level Pressure 29.99 in    
Wind  
Wind Speed 3 mph (NNW)    
Max Wind Speed 8 mph    
Max Gust Speed -    
Visibility 10 miles    
Events      
Averages and records for this station are not official NWS values.
T = Trace of Precipitation, MM = Missing Value Source: NWS Daily Summary

Daily Weather History Graph

Daily Weather History Graph

Search for Another Location

Airport:

Trip Planner

Search our weather history database for the weather conditions in past years. The results will help you decide how hot, cold, wet, or windy it might be!

Date:

Astronomy

Sep. 13, 2012 Rise Set
Actual Time 6:45 AM PDT 7:15 PM PDT
Civil Twilight 6:18 AM PDT 7:42 PM PDT
Nautical Twilight 5:47 AM PDT 8:14 PM PDT
Astronomical Twilight 5:14 AM PDT 8:46 PM PDT
Moon 4:11 AM PDT (9/13) 5:41 PM PDT (9/13)
Length of Visible Light 13h 23m
Length of Day
12h 30m
Waning Crescent, 7% of the Moon is Illuminated
Sep 13
Waning Crescent
Sep 15
New
Sep 22
First Quarter
Sep 29
Full
Oct 8
Last Quarter

Hourly Weather History & Observations

Time (PDT) Temp. Heat Index Dew Point Humidity Pressure Visibility Wind Dir Wind Speed Gust Speed Precip Events Conditions
12:15 AM 62.6 °F - 50.0 °F 63% 29.98 in 10.0 mi ENE 4.6 mph - N/A   Clear
12:35 AM 62.6 °F - 50.0 °F 63% 29.98 in 10.0 mi East 4.6 mph - N/A   Clear
12:55 AM 60.8 °F - 50.0 °F 68% 29.98 in 10.0 mi East 3.5 mph - N/A   Clear
1:15 AM 60.8 °F - 50.0 °F 68% 29.98 in 10.0 mi East 5.8 mph - N/A   Clear
1:35 AM 60.8 °F - 50.0 °F 68% 29.98 in 10.0 mi East 4.6 mph - N/A   Clear
1:55 AM 59.0 °F - 50.0 °F 72% 29.98 in 10.0 mi East 3.5 mph - N/A   Clear
2:15 AM 59.0 °F - 50.0 °F 72% 29.98 in 10.0 mi East 4.6 mph - N/A   Clear
2:35 AM 60.8 °F - 50.0 °F 68% 29.98 in 10.0 mi Calm Calm - N/A   Clear
2:55 AM 60.8 °F - 50.0 °F 68% 29.98 in 10.0 mi Calm Calm - N/A   Clear
3:15 AM 60.8 °F - 48.2 °F 63% 29.98 in 10.0 mi East 4.6 mph - N/A   Clear
3:35 AM 60.8 °F - 48.2 °F 63% 29.98 in 10.0 mi Calm Calm - N/A   Clear
3:55 AM 62.6 °F - 48.2 °F 59% 29.99 in 10.0 mi Calm Calm - N/A   Clear
4:15 AM 62.6 °F - 46.4 °F 55% 29.99 in 10.0 mi SW 3.5 mph - N/A   Clear
4:35 AM 60.8 °F - 46.4 °F 59% 29.99 in 10.0 mi SW 3.5 mph - N/A   Clear
4:55 AM 60.8 °F - 48.2 °F 63% 30.00 in 10.0 mi SW 4.6 mph - N/A   Clear
5:15 AM 62.6 °F - 50.0 °F 63% 30.01 in 10.0 mi Calm Calm - N/A   Clear
5:35 AM 60.8 °F - 48.2 °F 63% 30.01 in 10.0 mi Calm Calm - N/A   Clear
5:55 AM 59.0 °F - 48.2 °F 67% 30.02 in 10.0 mi Calm Calm - N/A   Clear
6:15 AM 55.4 °F - 46.4 °F 72% 30.02 in 10.0 mi Calm Calm - N/A   Clear
6:35 AM 55.4 °F - 46.4 °F 72% 30.03 in 10.0 mi North 3.5 mph - N/A   Clear
7:15 AM 55.4 °F - 46.4 °F 72% 30.04 in 10.0 mi North 3.5 mph - N/A   Clear
7:35 AM 57.2 °F - 48.2 °F 72% 30.05 in 10.0 mi North 3.5 mph - N/A   Clear
7:55 AM 62.6 °F - 50.0 °F 63% 30.05 in 10.0 mi Calm Calm - N/A   Clear
8:15 AM 64.4 °F - 51.8 °F 64% 30.06 in 10.0 mi North 3.5 mph - N/A   Clear
8:35 AM 68.0 °F - 51.8 °F 56% 30.06 in 10.0 mi Calm Calm - N/A   Clear
8:55 AM 69.8 °F - 51.8 °F 53% 30.06 in 10.0 mi Calm Calm - N/A   Clear
9:15 AM 71.6 °F - 50.0 °F 46% 30.06 in 10.0 mi NW 3.5 mph - N/A   Clear
9:35 AM 73.4 °F - 50.0 °F 44% 30.06 in 10.0 mi NW 3.5 mph - N/A   Clear
9:55 AM 77.0 °F - 48.2 °F 36% 30.06 in 10.0 mi Calm Calm - N/A   Clear
10:15 AM 77.0 °F - 46.4 °F 34% 30.06 in 10.0 mi Calm Calm - N/A   Clear
10:35 AM 78.8 °F - 48.2 °F 34% 30.06 in 10.0 mi Calm Calm - N/A   Clear
10:55 AM 80.6 °F - 48.2 °F 32% 30.06 in 10.0 mi Calm Calm - N/A   Clear
11:15 AM 80.6 °F - 48.2 °F 32% 30.06 in 10.0 mi WNW 4.6 mph - N/A   Clear
11:35 AM 84.2 °F - 46.4 °F 27% 30.05 in 10.0 mi North 3.5 mph - N/A   Clear
11:55 AM 86.0 °F - 46.4 °F 25% 30.05 in 10.0 mi Calm Calm - N/A   Clear
12:15 PM 87.8 °F - 48.2 °F 25% 30.04 in 10.0 mi WNW 6.9 mph - N/A   Clear
12:35 PM 87.8 °F - 50.0 °F 27% 30.03 in 10.0 mi NW 5.8 mph - N/A   Clear
12:55 PM 89.6 °F - 50.0 °F 26% 30.02 in 10.0 mi West 5.8 mph - N/A   Clear
1:15 PM 89.6 °F - 50.0 °F 26% 30.02 in 10.0 mi WNW 5.8 mph - N/A   Clear
1:35 PM 91.4 °F - 50.0 °F 24% 30.01 in 10.0 mi WNW 6.9 mph - N/A   Clear
1:55 PM 91.4 °F - 50.0 °F 24% 30.00 in 10.0 mi West 6.9 mph - N/A   Clear
2:15 PM 91.4 °F - 50.0 °F 24% 29.99 in 10.0 mi WNW 5.8 mph - N/A   Clear
2:55 PM 93.2 °F - 48.2 °F 21% 29.98 in 10.0 mi WNW 8.1 mph - N/A   Clear
3:15 PM 93.2 °F - 50.0 °F 23% 29.97 in 10.0 mi NW 6.9 mph - N/A   Clear
3:35 PM 95.0 °F - 50.0 °F 22% 29.97 in 10.0 mi NW 6.9 mph - N/A   Clear
3:55 PM 95.0 °F - 50.0 °F 22% 29.96 in 10.0 mi NW 3.5 mph - N/A   Clear
4:15 PM 95.0 °F - 50.0 °F 22% 29.96 in 10.0 mi NW 5.8 mph - N/A   Clear
4:35 PM 95.0 °F - 48.2 °F 20% 29.95 in 10.0 mi NW 6.9 mph - N/A   Clear
4:55 PM 95.0 °F - 50.0 °F 22% 29.94 in 10.0 mi WNW 5.8 mph - N/A   Clear
5:15 PM 95.0 °F - 50.0 °F 22% 29.94 in 10.0 mi West 3.5 mph - N/A   Clear
5:35 PM 95.0 °F - 50.0 °F 22% 29.94 in 10.0 mi WNW 4.6 mph - N/A   Clear
5:55 PM 91.4 °F - 50.0 °F 24% 29.94 in 10.0 mi WNW 3.5 mph - N/A   Clear
6:15 PM 93.2 °F - 50.0 °F 23% 29.94 in 10.0 mi WNW 4.6 mph - N/A   Clear
6:35 PM 91.4 °F - 50.0 °F 24% 29.94 in 10.0 mi WNW 3.5 mph - N/A   Clear
6:55 PM 91.4 °F - 51.8 °F 26% 29.93 in 10.0 mi Calm Calm - N/A   Clear
7:15 PM 87.8 °F - 51.8 °F 29% 29.94 in 10.0 mi West 3.5 mph - N/A   Clear
7:35 PM 84.2 °F - 50.0 °F 30% 29.94 in 10.0 mi Calm Calm - N/A   Clear
7:55 PM 82.4 °F - 51.8 °F 35% 29.95 in 10.0 mi Calm Calm - N/A   Clear
8:15 PM 80.6 °F 80.3 °F 53.6 °F 39% 29.96 in 10.0 mi Calm Calm - N/A   Clear
8:35 PM 78.8 °F - 51.8 °F 39% 29.96 in 10.0 mi Calm Calm - N/A   Clear
8:55 PM 71.6 °F - 55.4 °F 57% 29.97 in 10.0 mi East 4.6 mph - N/A   Clear
9:15 PM 71.6 °F - 55.4 °F 57% 29.97 in 10.0 mi East 5.8 mph - N/A   Clear
9:35 PM 71.6 °F - 55.4 °F 57% 29.97 in 10.0 mi East 5.8 mph - N/A   Clear
9:55 PM 71.6 °F - 53.6 °F 53% 29.97 in 10.0 mi East 6.9 mph - N/A   Clear
10:15 PM 69.8 °F - 53.6 °F 56% 29.97 in 10.0 mi East 8.1 mph - N/A   Clear
10:35 PM 75.2 °F - 55.4 °F 50% 29.97 in 10.0 mi SE 4.6 mph - N/A   Clear
10:55 PM 71.6 °F - 55.4 °F 57% 29.97 in 10.0 mi SE 3.5 mph - N/A   Clear
11:15 PM 71.6 °F - 53.6 °F 53% 29.97 in 10.0 mi Calm Calm - N/A   Clear
11:35 PM 73.4 °F - 55.4 °F 53% 29.97 in 10.0 mi Calm Calm - N/A   Clear
11:55 PM 69.8 °F - 53.6 °F 56% 29.98 in 10.0 mi Calm Calm - N/A   Clear